User: anonymous   Login
Location: Stoke Bliss
(52.2667°N, 2.5167°W)
Time: 17:11:49
(UTC+00:00)
Language:

Resurs 1-3 - Orbit

View from above orbital plane
View from above orbital plane
View from above satellite
View from above satellite

Ground track
Ground track

The orbit data is extracted from the following two-line orbital elements,

1 23342U 94074A   21125.84622119  .00000100  00000-0  20196-4 0  9995
2 23342  97.8816 175.5289 0002289  80.8076 279.3395 14.79413087427254
Epoch (UTC): 05 May 2021 20:18:33
Eccentricity: 0.0002289
inclination: 97.8816°
perigee height: 629 km
apogee height: 633 km
right ascension of ascending node: 175.5289°
argument of perigee: 80.8076°
revolutions per day: 14.79413087
mean anomaly at epoch: 279.3395°
orbit number at epoch: 42725

The dashed part of the orbit path shows where the satellite is in the earth's shadow,  

DLR